SCP
0 0 0 0 0 0 0 0 0 0 0 0 0 0 0 0 0 0 0 0 0 0 0 0 0 0 0 0 0 0 0 0 0 0 0 0 0 0 0 0 0 0 0
0 0 0 0 0 0 0 0 0 0 0 0 0 0 0 0 0 0 0 0 0 0 0 0 0 0 0 0 0 0 0 0 0 0 0 0 0 0 0 0 0 0 0
0 0 0 0 0 0 0 0 0 0 0 0 0 0 0 0 0 0 0 0 0 0 0 0 0 0 0 0 0 0 0 0 0 0 0 0 0 0 0 0 0 0 0
0 0 0 0 0 0 0 0 0 0 0 0 0 0 0 0 0 0 0 0 0 0 0 0 0 0 0 0 0 0 0 0 0 0 0 0 0 0 0 0 0 0 0
0 0 0 0 0 0 0 0 0 0 0 0 0 0 0 0 0 0 0 0 0 0 0 0 0 0 0 0 0 0 0 0 0 0 0 0 0 0 0 0 0 0 0
0 0 0 0 0 0 0 0 0 0 0 0 0 0 0 0 0 0 0 0 0 0 0 0 0 0 0 0 0 0 0 0 0 0 0 0 0 0 0 0 0 0 0
0 0 0 0 0 0 0 0 0 0 0 0 0 0 0 0 0 0 0 0 0 0 0 0 0 0 0 0 0 0 0 0 0 0 0 0 0 0 0 0 0 0 0
0 0 0 0 0 0 0 0 0 0 0 0 0 0 0 0 0 0 0 0 0 0 0 0 0 0 0 0 0 0 0 0 0 0 0 0 0 0 0 0 0 0 0
0 0 0 0 0 0 0 0 0 0 0 0 0 0 0 0 0 0 0 0 0 0 0 0 0 0 0 0 0 0 0 0 0 0 0 0 0 0 0 0 0 0 0
0 0 0 0 0 0 0 0 0 0 0 0 0 0 0 0 0 0 0 0 0 0 0 0 0 0 0 0 0 0 0 0 0 0 0 0 0 0 0 0 0 0 0
0 0 0 0 0 0 0 0 0 0 0 0 0 0 0 0 0 0 0 0 0 0 0 0 0 0 0 0 0 0 0 0 0 0 0 0 0 0 0 0 0 0 0
0 0 0 0 0 0 0 0 0 0 0 0 0 0 0 0 0 0 0 0 0 0 0 0 0 0 0 0 0 0 0 0 0 0 0 0 0 0 0 0 0 0 0
0 0 0 0 0 0 0 0 0 0 0 0 0 0 0 0 0 0 0 0 0 0 0 0 0 0 0 0 0 0 0 0 0 0 0 0 0 0 0 0 0 0 0
0 0 0 0 0 0 0 0 0 0 0 0 0 0 0 0 0 0 0 0 0 0 0 0 0 0 0 0 0 0 0 0 0 0 0 0 0 0 0 0 0 0 0
0 0 0 0 0 0 0 0 0 0 0 0 0 0 0 0 0 0 0 0 0 0 0 0 0 0 0 0 0 0 0 0 0 0 0 0 0 0 0 0 0 0 0
0 0 0 0 0 0 0 0 0 0 0 0 0 0 0 0 0 0 0 0 0 0 0 0 0 0 0 0 0 0 0 0 0 0 0 0 0 0 0 0 0 0 0
0 0 0 0 0 0 0 0 0 0 0 0 0 0 0 0 0 0 0 0 0 0 0 0 0 0 0 0 0 0 0 0 0 0 0 0 0 0 0 0 0 0 0
0 0 0 0 0 0 0 0 0 0 0 0 0 0 0 0 0 0 0 0 0 0 0 0 0 0 0 0 0 0 0 0 0 0 0 0 0 0 0 0 0 0 0
0 0 0 0 0 0 0 0 0 0 0 0 0 0 0 0 0 0 0 0 0 0 0 0 0 0 0 0 0 0 0 0 0 0 0 0 0 0 0 0 0 0 0
0 0 0 0 0 0 0 0 0 0 0 0 0 0 0 0 0 0 0 0 0 0 0 0 0 0 0 0 0 0 0 0 0 0 0 0 0 0 0 0 0 0 0
0 0 0 0 0 0 0 0 0 0 0 0 0 0 0 0 0 0 0 0 0 0 0 0 0 0 0 0 0 0 0 0 0 0 0 0 0 0 0 0 0 0 0
0 0 0 0 0 0 0 0 0 0 0 0 0 0 0 0 0 0 0 0 0 0 0 0 0 0 0 0 0 0 0 0 0 0 0 0 0 0 0 0 0 0 0
0 0 0 0 0 0 0 0 0 0 0 0 0 0 0 0 0 0 0 0 0 0 0 0 0 0 0 0 0 0 0 0 0 0 0 0 0 0 0 0 0 0 0
0 0 0 0 0 0 0 0 0 0 0 0 0 0 0 0 0 0 0 0 0 0 0 0 0 0 0 0 0 0 0 0 0 0 0 0 0 0 0 0 0 0 0
0 0 0 0 0 0 0 0 0 0 0 0 0 0 0 0 0 0 0 0 0 0 0 0 0 0 0 0 0 0 0 0 0 0 0 0 0 0 0 0 0 0 0
0 0 0 0 0 0 0 0 0 0 0 0 0 0 0 0 0 0 0 0 0 0 0 0 0 0 0 0 0 0 0 0 0 0 0 0 0 0 0 0 0 0 0
Wind_Speed
7 5 4 4 4 3 4 4 5 6 6 6 5 6 6 6 5 4 3 9 12 14 15 15 14 15 15 15 15 15 15 16 16 16 16 16 17 17 17 17 17 18 18
7 7 6 5 4 4 4 4 6 6 5 5 5 5 6 5 5 5 4 5 8 11 13 13 13 13 13 14 14 14 14 14 14 15 15 15 15 15 15 15 16 16 16
10 9 8 7 5 5 6 5 6 5 5 5 5 5 4 4 5 5 4 3 3 6 10 12 12 12 12 12 12 12 13 13 13 13 13 13 13 13 13 13 13 14 14
12 10 8 8 7 7 6 7 6 5 5 4 4 3 3 3 4 4 4 4 3 3 5 10 10 11 11 11 11 11 11 11 11 11 11 11 11 11 11 11 11 11 12
13 11 9 8 9 7 6 8 6 6 6 6 4 3 2 2 2 3 4 4 3 3 3 5 6 8 11 11 11 11 10 10 10 9 9 9 9 9 9 9 9 9 10
14 12 9 10 11 8 7 8 8 5 6 7 6 4 2 1 1 1 2 2 2 3 3 3 3 3 8 11 11 11 10 10 9 8 7 7 6 6 6 6 7 7 8
14 13 9 11 11 11 12 11 7 9 5 6 5 2 1 1 1 2 2 2 3 3 3 3 3 2 2 7 10 11 11 10 9 8 6 5 4 4 4 4 5 5 6
14 12 12 11 12 10 11 12 10 8 5 8 6 5 3 3 5 5 4 4 5 3 4 4 4 4 3 1 6 11 11 11 10 8 6 5 3 2 2 2 3 4 5
13 13 14 12 12 12 13 14 15 14 10 10 6 7 7 9 4 4 6 6 6 5 5 4 5 5 5 3 3 8 11 11 10 9 7 5 4 2 1 1 2 4 5
10 12 13 14 14 12 13 14 16 12 12 12 6 5 3 5 6 5 3 5 8 9 8 8 7 6 6 4 6 9 11 12 11 10 8 7 5 4 3 3 4 5 6
8 10 11 13 13 13 14 15 15 14 11 11 9 5 3 2 3 5 5 5 7 9 9 9 7 7 7 6 5 9 14 14 12 11 10 8 7 6 6 5 6 6 7
7 9 10 11 12 12 13 14 16 17 15 13 10 8 8 7 8 6 5 5 7 7 8 8 9 9 8 8 10 16 17 17 15 14 12 11 9 8 8 7 7 8 8
7 10 10 11 11 12 12 13 15 15 17 15 15 12 10 8 5 7 6 4 4 3 5 8 10 9 10 9 10 19 18 19 17 16 14 13 11 10 10 9 9 9 10
8 9 11 11 11 11 12 12 13 14 14 16 17 15 11 9 7 6 7 7 4 4 6 8 8 11 11 10 14 21 13 20 19 17 16 14 13 12 11 11 11 11 11
6 8 10 11 11 11 12 12 12 14 13 15 15 15 13 10 7 6 5 7 8 8 11 11 8 11 11 10 16 12 10 18 20 19 17 15 14 13 13 12 12 12 13
7 8 10 11 11 11 11 12 11 11 14 14 12 15 15 10 8 8 8 7 7 8 8 9 10 7 11 11 17 12 12 19 20 19 18 16 15 14 14 13 13 13 14
8 9 10 11 11 12 11 12 12 11 14 14 13 15 16 13 11 10 9 9 9 7 8 4 5 5 10 11 10 10 9 10 10 19 18 17 16 15 15 15 14 14 14
8 9 9 10 11 11 11 12 13 12 13 14 15 15 16 12 15 11 10 12 11 9 8 6 5 5 8 11 10 10 9 8 7 15 18 17 16 15 16 15 15 15 15
8 8 9 10 11 11 11 12 12 12 13 13 13 15 15 14 15 12 12 12 10 8 6 5 5 4 3 6 8 6 6 5 6 10 15 16 16 16 16 16 15 15 14
8 9 9 10 10 10 10 10 10 11 11 11 11 11 12 14 15 14 12 12 9 9 7 6 5 4 4 5 7 6 6 6 6 6 10 11 13 16 16 16 15 14 14
8 8 8 9 8 8 8 10 10 10 10 10 9 9 10 12 14 12 10 10 11 10 8 7 6 5 6 7 9 7 8 5 5 5 4 5 6 6 7 11 13 13 14
7 7 8 9 9 8 12 16 12 9 9 10 10 9 8 9 12 16 17 16 16 13 12 10 8 9 9 8 7 7 6 5 5 5 5 5 4 6 6 5 10 14 15
6 7 8 8 9 11 15 15 15 10 9 9 9 7 6 6 8 8 13 16 16 19 18 12 11 10 10 10 11 9 8 6 5 4 5 4 4 5 4 6 13 14 14
6 6 7 7 8 9 13 14 13 10 8 8 8 8 7 6 7 8 7 8 8 10 12 9 8 8 8 9 10 9 7 4 2 2 5 4 3 4 3 4 11 13 12
5 5 4 6 7 7 10 12 11 5 6 7 6 6 7 6 10 13 9 8 8 6 10 10 9 10 13 14 12 7 6 5 4 4 5 4 3 2 2 3 6 10 9
5 4 4 4 5 5 8 10 10 4 5 4 4 5 7 9 11 14 9 9 9 7 7 7 8 10 9 11 14 9 8 6 4 4 5 5 3 3 3 2 1 2 3
Wind_Direction
163 160 158 159 154 140 134 127 120 115 111 106 101 101 94 84 75 65 65 90 114 120 119 117 115 112 109 107 105 102 100 98 95 92 89 86 83 80 77 73 69 66 62
169 168 169 173 170 157 146 138 133 125 118 115 110 108 106 99 88 80 64 70 94 119 125 125 122 120 117 115 112 110 107 104 101 97 94 90 86 82 78 74 70 66 61
176 175 176 180 176 158 145 132 124 119 120 118 115 114 109 108 105 94 82 65 70 96 126 132 131 128 126 124 121 118 114 111 107 104 100 95 91 86 81 76 70 65 60
181 178 181 185 174 163 157 151 148 136 131 128 124 115 105 107 108 106 95 86 74 72 109 130 140 141 139 136 132 128 124 119 114 110 105 100 94 89 83 77 70 64 57
186 184 186 183 173 169 166 164 161 149 148 139 122 100 91 100 111 119 118 111 104 99 91 114 119 145 153 151 147 142 137 131 125 120 114 107 100 91 84 76 68 60 53
191 189 186 180 175 172 170 170 164 153 147 142 121 90 59 53 77 148 154 142 135 125 115 110 101 131 158 164 162 157 152 146 140 134 127 118 109 97 84 72 62 53 45
192 191 186 182 182 182 181 172 158 153 145 140 113 94 22 356 242 219 206 193 187 174 158 151 143 129 156 172 176 171 167 163 157 152 146 138 126 108 88 69 52 40 32
194 193 189 186 187 185 179 176 162 159 162 173 148 140 181 252 246 218 209 207 205 199 198 192 178 166 156 159 197 182 180 176 172 170 166 163 156 138 99 54 30 18 13
197 195 194 189 190 189 187 184 180 173 176 191 191 165 167 203 203 215 216 209 202 204 207 202 200 189 180 176 187 193 187 186 185 185 185 188 192 200 228 325 341 344 347
202 199 196 194 193 195 194 191 191 189 179 186 205 224 193 148 164 192 226 217 209 210 207 205 202 202 192 184 192 194 192 193 193 196 199 205 215 228 248 276 300 315 324
209 205 201 199 199 200 200 196 196 197 196 193 189 176 172 156 165 164 195 202 212 217 209 206 201 203 200 194 193 200 198 199 200 203 208 215 225 237 252 269 285 299 308
213 214 209 206 205 206 205 202 200 203 206 206 201 191 178 175 186 182 181 192 207 207 204 205 206 204 202 199 202 203 204 205 206 208 213 220 229 240 252 265 278 290 299
215 216 213 215 213 212 209 205 206 208 210 211 210 212 214 207 174 175 173 170 192 189 198 213 212 205 205 200 205 206 209 210 211 212 216 223 231 241 252 262 273 284 293
216 210 213 220 220 215 213 210 212 213 213 217 219 218 219 219 199 188 177 162 165 198 215 221 208 208 207 201 206 206 210 212 214 215 218 224 231 241 250 260 269 279 287
212 207 211 218 222 220 218 215 219 217 215 217 221 221 223 222 210 204 187 184 182 198 218 213 208 205 203 199 206 204 201 212 214 217 221 226 232 241 249 257 266 275 283
213 208 212 217 221 222 221 221 225 221 220 220 219 223 224 223 215 205 204 208 209 214 223 202 204 194 195 201 206 200 202 209 216 220 223 227 234 242 250 258 266 273 281
216 215 213 216 220 221 220 225 229 224 225 226 222 222 225 221 220 215 209 209 212 208 227 205 182 175 187 195 198 196 196 203 212 220 224 229 235 242 250 257 264 272 279
223 219 215 217 220 220 220 224 230 228 229 229 226 224 225 221 222 219 214 214 214 209 209 201 179 176 191 197 192 193 196 201 204 219 225 231 237 243 250 256 263 270 277
229 223 218 220 221 220 220 224 230 231 232 233 229 226 225 220 223 220 216 215 212 205 197 184 176 169 171 183 181 189 192 197 204 219 227 234 240 246 251 256 262 269 276
233 229 225 224 222 220 220 223 228 234 237 239 236 233 228 222 223 219 217 215 203 195 188 179 168 162 159 163 172 182 196 203 211 209 226 232 241 248 251 256 262 268 274
238 233 229 228 223 221 221 221 225 232 237 242 241 238 235 230 226 219 214 206 195 194 187 185 178 168 169 168 185 186 200 195 210 201 210 225 232 237 242 255 262 265 272
244 234 230 228 226 226 228 225 223 228 233 238 244 242 238 231 228 223 220 209 198 192 190 188 189 188 186 182 172 178 180 176 212 196 195 222 207 229 234 230 252 264 272
248 240 236 229 232 234 233 232 228 226 231 235 238 239 237 227 220 220 221 215 210 208 199 188 191 189 181 179 173 178 185 189 197 168 170 219 206 230 228 238 254 261 268
248 245 241 234 236 240 238 237 233 229 234 236 233 230 231 223 211 205 202 202 200 205 203 197 190 184 176 171 177 177 176 168 132 167 170 209 208 227 231 231 252 258 268
257 246 242 233 236 245 242 241 235 229 234 235 230 223 218 216 215 208 200 197 193 196 201 190 181 175 174 172 164 148 151 164 195 200 184 197 204 217 236 238 247 254 263
259 252 249 238 237 245 247 243 236 227 231 231 224 217 216 214 213 207 199 192 190 180 169 169 171 172 171 174 176 174 172 178 183 202 187 186 185 177 248 240 237 241 265